Flag Weather past 2 weeks in Iráklion, Crete, Greece

Now
55 °F

Passing clouds.


Feels Like: 51 °F
Forecast: 53 / 60 °F
Wind: 20 mph from North

Location: Heraklion Airport

Current Time: Nov 26, 2014 at 1:08:55 AM

Latest Report: Nov 26, 2014 at 12:20 AM


Visibility: N/A

Pressure: 30.09 "Hg

Humidity: 63%

Dew point: 43 °F

Location of IráklionLocation

Historic Weather in Iráklion — Graph

°F

Iráklion temperature yesterday

Maximum temperature yesterday: 59 °F (at 12:20 AM)
Minimum temperature yesterday: 54 °F (at 8:50 AM)
Average temperature yesterday: 57 °F

Past Weeks' High & Low Weather Summary

 TemperatureHumidityPressure
High77 °F (Nov 13, 11:50 AM)94% (Nov 10, 11:20 PM)30.18 "Hg (Nov 10, 11:20 PM)
Low54 °F (Nov 21, 6:50 AM)47% (Nov 12, 11:50 AM)29.77 "Hg (Nov 14, 2:50 PM)
Average64 °F72%30.02 "Hg
* Reported Nov 10 11:20 PM — Nov 25 11:50 PM, Iráklion, Weather by CustomWeather, © 2014

Note: Actual official high and low records may vary slightly from our data, if they occured in-between our weather recording intervals... More about our weather records

Advertising

Iráklion weather history for previous 24 hours

 ConditionsComfort  
Time TempWeatherWind HumidityBarometerVisibility
11:50 PM
Nov 25
55 °FPassing clouds.18 mph63%30.09 "HgN/A
11:20 PM55 °FPassing clouds.17 mph63%30.09 "HgN/A
10:20 PM55 °FPassing clouds.21 mph63%30.09 "HgN/A
9:50 PM55 °FPassing clouds.22 mph63%30.09 "HgN/A
9:20 PM57 °FPassing clouds.22 mph63%30.09 "HgN/A
8:50 PM57 °FPassing clouds.22 mph63%30.09 "HgN/A
8:20 PM57 °FPassing clouds.21 mph63%30.09 "HgN/A
7:50 PM57 °FPassing clouds.20 mph63%30.09 "HgN/A
7:20 PM57 °FPassing clouds.17 mph59%30.09 "HgN/A
6:50 PM57 °FPassing clouds.18 mph59%30.09 "HgN/A
6:20 PM57 °FPassing clouds.20 mph55%30.09 "HgN/A
5:50 PM57 °FPassing clouds.15 mph55%30.09 "HgN/A
5:20 PM57 °FPassing clouds.16 mph59%30.07 "HgN/A
4:50 PM57 °FPartly sunny.17 mph59%30.07 "HgN/A
4:20 PM57 °FPartly sunny.20 mph63%30.07 "HgN/A
3:50 PM57 °FPartly sunny.20 mph63%30.07 "HgN/A
3:20 PM57 °FPartly sunny.18 mph59%N/AN/A
2:50 PM57 °FPartly sunny.20 mph59%30.07 "HgN/A
1:50 PM57 °FPartly sunny.21 mph59%30.09 "HgN/A
1:20 PM57 °FPartly sunny.21 mph55%30.09 "HgN/A
12:50 PM57 °FPartly sunny.22 mph55%30.09 "HgN/A
12:20 PM57 °FPartly sunny.25 mph63%30.09 "HgN/A
11:50 AM57 °FPartly sunny.22 mph63%30.09 "HgN/A
11:20 AM55 °FPartly sunny.24 mph59%30.12 "HgN/A
10:50 AM55 °FPartly sunny.24 mph59%30.12 "HgN/A
10:20 AM55 °FPartly sunny.28 mph67%30.12 "HgN/A
9:50 AM55 °FPartly sunny.24 mph67%30.09 "HgN/A
9:20 AM55 °FPartly sunny.21 mph72%30.09 "HgN/A
8:50 AM54 °FLight rain. Partly sunny.24 mph82%30.09 "Hg5 mi
8:20 AM57 °FLight rain. Partly sunny.18 mph67%30.09 "HgN/A
7:50 AM57 °FPartly sunny.21 mph67%30.09 "HgN/A
7:20 AM57 °FPartly sunny.20 mph72%30.07 "HgN/A
6:50 AM55 °FLight rain. Passing clouds.17 mph77%30.07 "HgN/A
6:20 AM59 °FPassing clouds.17 mph55%30.07 "HgN/A
5:50 AM59 °FPassing clouds.18 mph55%30.07 "HgN/A
5:20 AM59 °FPassing clouds.16 mph55%30.09 "HgN/A
4:50 AM59 °FPassing clouds.18 mph55%30.09 "HgN/A
4:20 AM57 °FPassing clouds.18 mph55%30.09 "HgN/A
3:50 AM57 °FPassing clouds.20 mph55%30.09 "HgN/A
2:50 AM57 °FPassing clouds.20 mph55%30.09 "HgN/A
2:20 AM57 °FPassing clouds.21 mph55%30.09 "HgN/A
1:20 AM59 °FPassing clouds.21 mph55%30.09 "HgN/A
Weather by CustomWeather, © 2014

See weather overviewHow to use our weather pages